Date String (YYYY-MM-DD hh:mm:ss) UTC,Instrument flags,Ambient pressure (hPa),Sample flow (lpm),Bypass flow (lpm),Sample temperature (°C),Ambient temperature (°C),ASC tube jacket temperature (°C),LED temperature (°C),Box temperature (°C),Sample RH (%),Span deviation,Mass concentration (μg/m³),Mass concentration (μg/m³),Mass concentration (μg/m³)
DateTimeUTC,F1_M11,P_M11,Q1_M11,Q2_M11,T1_M11,T2_M11,T3_M11,T4_M11,T5_M11,U1_M11,ZSPAN_M11,X2_M11,X0_M11,X1_M11
2022-11-18 13:00:00,,0831.7,5.00,0.00,22.3,20.8,00.0,31.2,24.0,07.9,0000.0,0004.24,0006.24,0004.02
2022-11-18 13:01:00,,0831.7,5.00,0.00,22.2,20.8,00.0,31.2,24.0,07.9,0000.0,0004.24,0006.22,0004.02
2022-11-18 13:02:00,,0831.7,5.00,0.00,22.3,21.6,00.0,31.2,24.2,07.9,0000.0,0004.26,0006.59,0004.03
2022-11-18 13:03:00,,0831.7,4.99,0.00,22.4,22.3,00.0,31.2,24.3,07.8,0000.0,0004.29,0006.98,0004.04
2022-11-18 13:04:00,,0831.7,4.99,0.00,22.5,22.3,00.0,31.2,24.4,07.8,0000.0,0004.29,0006.92,0004.05
2022-11-18 13:05:00,,0831.7,5.00,0.00,22.5,22.0,00.0,31.3,24.3,07.8,0000.0,0004.30,0006.90,0004.06
2022-11-18 13:06:00,,0831.7,5.01,0.00,22.4,21.7,00.0,31.3,24.3,07.8,0000.0,0004.32,0006.95,0004.07
2022-11-18 13:07:00,,0831.7,5.00,0.00,22.4,21.4,00.0,31.3,24.2,07.8,0000.0,0004.32,0006.87,0004.09
2022-11-18 13:08:00,,0831.7,4.98,0.00,22.4,21.2,00.0,31.3,24.2,07.8,0000.0,0004.32,0006.45,0004.10
2022-11-18 13:09:00,,0831.8,5.00,0.00,22.4,21.1,00.0,31.3,24.1,07.8,0000.0,0004.35,0006.33,0004.12
2022-11-18 13:10:00,,0831.7,5.00,0.00,22.3,21.0,00.0,31.3,24.1,07.8,0000.0,0004.40,0006.48,0004.15
2022-11-18 13:11:00,,0831.7,5.00,0.00,22.3,20.9,00.0,31.3,24.1,07.8,0000.0,0004.45,0006.70,0004.20
2022-11-18 13:12:00,,0831.7,5.00,0.00,22.3,20.9,00.0,31.3,24.1,07.8,0000.0,0004.48,0006.78,0004.22
2022-11-18 13:13:00,,0831.7,5.00,0.00,22.3,20.8,00.0,31.3,24.1,07.8,0000.0,0004.52,0006.86,0004.25
2022-11-18 13:14:00,,0831.7,5.01,0.00,22.3,20.9,00.0,31.3,24.1,07.9,0000.0,0004.56,0006.93,0004.28
2022-11-18 13:15:00,,0831.7,5.01,0.00,22.3,21.8,00.0,31.2,24.2,07.8,0000.0,0004.60,0007.03,0004.32
2022-11-18 13:16:00,,0831.7,5.00,0.00,22.4,22.5,00.0,31.2,24.4,07.8,0000.0,0004.65,0007.25,0004.34
2022-11-18 13:17:00,,0831.7,5.00,0.00,22.5,22.3,00.0,31.3,24.4,07.8,0000.0,0004.66,0007.25,0004.36
2022-11-18 13:18:00,,0831.7,4.99,0.00,22.5,21.9,00.0,31.3,24.4,07.8,0000.0,0004.69,0007.30,0004.38
2022-11-18 13:19:00,,0831.7,5.02,0.00,22.5,21.6,00.0,31.3,24.3,07.8,0000.0,0004.73,0007.38,0004.41
2022-11-18 13:20:00,,0831.7,4.98,0.00,22.4,21.4,00.0,31.3,24.2,07.8,0000.0,0004.76,0007.40,0004.44
2022-11-18 13:21:00,,0831.7,5.00,0.00,22.4,21.3,00.0,31.3,24.2,07.8,0000.0,0004.79,0007.47,0004.45
2022-11-18 13:22:00,,0831.7,5.00,0.00,22.4,21.1,00.0,31.3,24.2,07.8,0000.0,0004.79,0007.43,0004.45
2022-11-18 13:23:00,,0831.7,5.00,0.00,22.4,21.0,00.0,31.3,24.2,07.8,0000.0,0004.81,0007.45,0004.46
2022-11-18 13:24:00,,0831.7,5.00,0.00,22.3,21.0,00.0,31.3,24.1,07.8,0000.0,0004.84,0007.68,0004.48
2022-11-18 13:25:00,,0831.7,5.00,0.00,22.3,20.9,00.0,31.3,24.1,07.8,0000.0,0004.82,0008.02,0004.49
2022-11-18 13:26:00,,0831.7,5.00,0.00,22.3,20.8,00.0,31.3,24.1,07.8,0000.0,0004.80,0008.56,0004.48
2022-11-18 13:27:00,,0831.7,5.00,0.00,22.3,20.8,00.0,31.3,24.0,07.8,0000.0,0004.79,0008.54,0004.47
2022-11-18 13:28:00,,0831.7,5.00,0.00,22.3,21.5,00.0,31.2,24.2,07.7,0000.0,0004.77,0008.50,0004.47
2022-11-18 13:29:00,,0831.7,5.00,0.00,22.4,22.3,00.0,31.2,24.4,07.7,0000.0,0004.77,0008.52,0004.45
2022-11-18 13:30:00,,0831.7,5.01,0.00,22.5,22.4,00.0,31.2,24.5,07.7,0000.0,0004.78,0008.63,0004.45
2022-11-18 13:31:00,,0831.7,5.00,0.00,22.5,22.0,00.0,31.3,24.4,07.7,0000.0,0004.77,0008.65,0004.44
2022-11-18 13:32:00,,0831.7,5.00,0.00,22.5,21.7,00.0,31.3,24.4,07.7,0000.0,0004.72,0008.56,0004.43
2022-11-18 13:33:00,,0831.7,5.01,0.00,22.5,21.5,00.0,31.3,24.3,07.7,0000.0,0004.71,0008.51,0004.42
2022-11-18 13:34:00,,0831.7,5.00,0.00,22.4,21.3,00.0,31.3,24.2,07.7,0000.0,0004.68,0008.47,0004.40
2022-11-18 13:35:00,,0831.7,5.00,0.00,22.4,21.1,00.0,31.3,24.2,07.7,0000.0,0004.63,0008.20,0004.38
2022-11-18 13:36:00,,0831.8,5.00,0.00,22.4,21.0,00.0,31.3,24.2,07.7,0000.0,0004.61,0007.50,0004.37
2022-11-18 13:37:00,,0831.7,5.00,0.00,22.4,20.9,00.0,31.3,24.2,07.7,0000.0,0004.61,0006.51,0004.37
2022-11-18 13:38:00,,0831.7,4.99,0.00,22.3,20.8,00.0,31.3,24.1,07.7,0000.0,0004.62,0006.46,0004.39
2022-11-18 13:39:00,,0831.6,5.00,0.00,22.3,20.7,00.0,31.3,24.1,07.7,0000.0,0004.62,0006.46,0004.39
2022-11-18 13:40:00,,0831.6,5.00,0.00,22.3,20.7,00.0,31.3,24.0,07.7,0000.0,0004.59,0006.31,0004.39
2022-11-18 13:41:00,,0831.6,5.01,0.00,22.3,21.0,00.0,31.3,24.1,07.7,0000.0,0004.55,0006.04,0004.37
2022-11-18 13:42:00,,0831.7,5.00,0.00,22.4,22.0,00.0,31.2,24.3,07.7,0000.0,0004.54,0005.95,0004.36
2022-11-18 13:43:00,,0831.7,4.97,0.00,22.5,22.5,00.0,31.2,24.4,07.7,0000.0,0004.55,0006.01,0004.36
2022-11-18 13:44:00,,0831.6,5.01,0.00,22.5,22.2,00.0,31.3,24.4,07.7,0000.0,0004.56,0006.13,0004.36
2022-11-18 13:45:00,,0831.6,5.00,0.00,22.5,21.9,00.0,31.3,24.3,07.7,0000.0,0004.58,0006.21,0004.36
2022-11-18 13:46:00,,0831.6,5.00,0.00,22.5,21.6,00.0,31.3,24.3,07.7,0000.0,0004.63,0006.47,0004.36
2022-11-18 13:47:00,,0831.6,5.00,0.00,22.4,21.3,00.0,31.3,24.2,07.7,0000.0,0004.63,0006.41,0004.36
2022-11-18 13:48:00,,0831.6,5.00,0.00,22.4,21.2,00.0,31.3,24.2,07.7,0000.0,0004.61,0006.39,0004.35
2022-11-18 13:49:00,,0831.6,5.00,0.00,22.4,21.0,00.0,31.3,24.1,07.7,0000.0,0004.61,0006.54,0004.35
2022-11-18 13:50:00,,0831.6,5.00,0.00,22.4,20.9,00.0,31.3,24.1,07.7,0000.0,0004.61,0006.67,0004.35
2022-11-18 13:51:00,,0831.6,5.00,0.00,22.3,20.9,00.0,31.3,24.1,07.7,0000.0,0004.63,0006.74,0004.36
2022-11-18 13:52:00,,0831.6,5.00,0.00,22.3,20.8,00.0,31.3,24.1,07.7,0000.0,0004.63,0006.73,0004.36
2022-11-18 13:53:00,,0831.7,5.00,0.00,22.3,20.8,00.0,31.3,24.0,07.7,0000.0,0004.62,0006.66,0004.36
2022-11-18 13:54:00,,0831.7,5.00,0.00,22.3,20.7,00.0,31.3,24.0,07.7,0000.0,0004.64,0006.95,0004.38
2022-11-18 13:55:00,,0831.7,5.00,0.00,22.3,21.2,00.0,31.2,24.1,07.7,0000.0,0004.64,0006.90,0004.39
2022-11-18 13:56:00,,0831.7,5.01,0.00,22.4,22.2,00.0,31.2,24.3,07.7,0000.0,0004.62,0006.82,0004.39
2022-11-18 13:57:00,,0831.7,5.00,0.00,22.5,22.4,00.0,31.2,24.4,07.7,0000.0,0004.57,0006.58,0004.39
2022-11-18 13:58:00,,0831.7,4.99,0.00,22.5,22.1,00.0,31.3,24.4,07.6,0000.0,0004.59,0006.66,0004.39
2022-11-18 13:59:00,,0831.7,4.99,0.00,22.5,21.8,00.0,31.3,24.4,07.6,0000.0,0004.62,0006.72,0004.40
